User: anonymous   Login
Location: Lac Lasalle
(46.0398°N, 74.1576°W)
Time: 21:09:05
(UTC-05:00)
Language:

LilacSat-2 - Orbit

View from above orbital plane
View from above orbital plane
View from above satellite
View from above satellite

Ground track
Ground track

The orbit data is extracted from the following two-line orbital elements,

1 40908U 15049K   21057.87627498  .00000857  00000-0  50318-4 0  9997
2 40908  97.5011  59.3968 0014706 217.2945 259.6449 15.14302994300497
Epoch (UTC): 26 February 2021 21:01:50
Eccentricity: 0.0014706
inclination: 97.5011°
perigee height: 513 km
apogee height: 533 km
right ascension of ascending node: 59.3968°
argument of perigee: 217.2945°
revolutions per day: 15.14302994
mean anomaly at epoch: 259.6449°
orbit number at epoch: 30049

The dashed part of the orbit path shows where the satellite is in the earth's shadow,  

DLR